time, Switch, Flow(0), Analog(2)
yyyy/mm/dd HH:MM:SS.fff, True=FILTERED|False=TOTAL, L/min, V
2023/07/04 07:00:02.154, True, 4.311, 0.127184
2023/07/04 07:00:02.650, True, 4.379, 0.125811
2023/07/04 07:00:03.154, True, 4.311, 0.125658
2023/07/04 07:00:03.658, True, 3.648, 0.127718
2023/07/04 07:00:04.154, True, 2.359, 0.125353
2023/07/04 07:00:04.658, True, 1.326, 0.126726
2023/07/04 07:00:05.162, True, 1.328, 0.126574
2023/07/04 07:00:05.658, True, 1.010, 0.128328
2023/07/04 07:00:06.162, True, 0.995, 0.128328
2023/07/04 07:00:06.666, True, 0.995, 0.128023
2023/07/04 07:00:07.169, True, 0.995, 0.127108
2023/07/04 07:00:07.665, True, 1.011, 0.128099
2023/07/04 07:00:08.170, True, 0.996, 0.127565
2023/07/04 07:00:08.673, True, 0.994, 0.126879
2023/07/04 07:00:09.169, True, 1.011, 0.126879
2023/07/04 07:00:09.674, True, 0.995, 0.127947
2023/07/04 07:00:10.177, True, 0.663, 0.126040
2023/07/04 07:00:10.673, True, 1.012, 0.128176
2023/07/04 07:00:11.177, True, 0.994, 0.126116
2023/07/04 07:00:11.682, True, 0.995, 0.126192
2023/07/04 07:00:12.177, True, 1.012, 0.125887
2023/07/04 07:00:12.681, True, 0.994, 0.124971
2023/07/04 07:00:13.186, True, 0.995, 0.127337
2023/07/04 07:00:13.682, True, 1.011, 0.127260
2023/07/04 07:00:14.186, True, 0.995, 0.127565
2023/07/04 07:00:14.689, True, 0.663, 0.127260
2023/07/04 07:00:15.186, True, 1.011, 0.127031
2023/07/04 07:00:15.690, True, 0.996, 0.127718
2023/07/04 07:00:16.194, True, 0.994, 0.127031
2023/07/04 07:00:16.690, True, 1.011, 0.125505
2023/07/04 07:00:17.194, True, 0.997, 0.126574
2023/07/04 07:00:17.698, True, 0.993, 0.126726
2023/07/04 07:00:18.194, True, 1.011, 0.125505
2023/07/04 07:00:18.698, True, 0.996, 0.125811
2023/07/04 07:00:19.202, True, 0.994, 0.127565
2023/07/04 07:00:19.698, True, 1.010, 0.127337
2023/07/04 07:00:20.202, True, 0.996, 0.126802
2023/07/04 07:00:20.706, True, 0.994, 0.129931
2023/07/04 07:00:21.202, True, 0.674, 0.125277
2023/07/04 07:00:21.706, True, 0.993, 0.130159
2023/07/04 07:00:22.210, True, 0.995, 0.127565
2023/07/04 07:00:22.706, True, 1.012, 0.126650
2023/07/04 07:00:23.210, True, 0.994, 0.127871
2023/07/04 07:00:23.714, True, 0.995, 0.127718
2023/07/04 07:00:24.210, True, 0.674, 0.125887
2023/07/04 07:00:24.714, True, 0.994, 0.125811
2023/07/04 07:00:25.218, True, 0.995, 0.126650
2023/07/04 07:00:25.714, True, 1.013, 0.125734
2023/07/04 07:00:26.217, True, 0.993, 0.124666
2023/07/04 07:00:26.722, True, 0.995, 0.126650
2023/07/04 07:00:27.218, True, 1.012, 0.126497
2023/07/04 07:00:27.722, True, 0.994, 0.126497
2023/07/04 07:00:28.226, True, 0.995, 0.125811
2023/07/04 07:00:28.722, True, 0.673, 0.127565
2023/07/04 07:00:29.226, True, 0.997, 0.126574
2023/07/04 07:00:29.730, True, 0.993, 0.126497
2023/07/04 07:00:30.226, True, 1.011, 0.127337
2023/07/04 07:00:30.730, True, 0.995, 0.127565
2023/07/04 07:00:31.234, True, 0.995, 0.126040
2023/07/04 07:00:31.730, True, 1.011, 0.126574
2023/07/04 07:00:32.234, True, 0.995, 0.128481
2023/07/04 07:00:32.737, True, 0.663, 0.128405
2023/07/04 07:00:33.234, True, 1.012, 0.126650
2023/07/04 07:00:33.738, True, 0.994, 0.126497
2023/07/04 07:00:34.234, True, 1.011, 0.126116
2023/07/04 07:00:34.738, True, 0.995, 0.125353
2023/07/04 07:00:35.242, True, 0.995, 0.126802
2023/07/04 07:00:35.738, True, 1.011, 0.126040
2023/07/04 07:00:36.242, True, 0.996, 0.126497
2023/07/04 07:00:36.746, True, 0.993, 0.125353
2023/07/04 07:00:37.242, True, 1.011, 0.128252
2023/07/04 07:00:37.746, True, 0.995, 0.129015
2023/07/04 07:00:38.250, True, 0.663, 0.126650
2023/07/04 07:00:38.746, True, 1.011, 0.127947
2023/07/04 07:00:39.250, True, 0.995, 0.125505
2023/07/04 07:00:39.754, True, 0.995, 0.127718
2023/07/04 07:00:40.250, True, 1.011, 0.127260
2023/07/04 07:00:40.754, True, 0.995, 0.129702
2023/07/04 07:00:41.258, True, 0.995, 0.128023
2023/07/04 07:00:41.754, True, 1.011, 0.127947
2023/07/04 07:00:42.258, True, 0.995, 0.128557
2023/07/04 07:00:42.762, True, 0.663, 0.127031
2023/07/04 07:00:43.258, True, 1.011, 0.125505
2023/07/04 07:00:43.762, True, 0.996, 0.125353
2023/07/04 07:00:44.266, True, 0.994, 0.127260
2023/07/04 07:00:44.762, True, 1.011, 0.128481
2023/07/04 07:00:45.266, True, 0.995, 0.128786
2023/07/04 07:00:45.770, True, 0.995, 0.126650
2023/07/04 07:00:46.266, True, 1.011, 0.126955
2023/07/04 07:00:46.770, True, 0.995, 0.127031
2023/07/04 07:00:47.274, True, 0.995, 0.125582
2023/07/04 07:00:47.769, True, 0.674, 0.126726
2023/07/04 07:00:48.274, True, 0.995, 0.125277
2023/07/04 07:00:48.770, True, 1.011, 0.127260
2023/07/04 07:00:49.274, True, 0.995, 0.127337
2023/07/04 07:00:49.778, True, 0.995, 0.125582
2023/07/04 07:00:50.274, True, 1.011, 0.126879
2023/07/04 07:00:50.778, True, 0.994, 0.126268
2023/07/04 07:00:51.282, True, 0.995, 0.124819
2023/07/04 07:00:51.777, True, 0.674, 0.127718
2023/07/04 07:00:52.282, True, 0.994, 0.127337
2023/07/04 07:00:52.786, True, 0.995, 0.126802
2023/07/04 07:00:53.282, True, 1.011, 0.128023
2023/07/04 07:00:53.786, True, 0.995, 0.124285
2023/07/04 07:00:54.290, True, 0.995, 0.126116
2023/07/04 07:00:54.786, True, 1.011, 0.129091
2023/07/04 07:00:55.290, True, 0.995, 0.128405
2023/07/04 07:00:55.794, True, 0.664, 0.126268
2023/07/04 07:00:56.290, True, 1.011, 0.129244
2023/07/04 07:00:56.793, True, 0.994, 0.128023
2023/07/04 07:00:57.298, True, 0.995, 0.128176
2023/07/04 07:00:57.794, True, 1.011, 0.126650
2023/07/04 07:00:58.298, True, 0.995, 0.126955
2023/07/04 07:00:58.802, True, 0.995, 0.124743
2023/07/04 07:00:59.305, True, 0.995, 0.125963
2023/07/04 07:00:59.801, True, 1.011, 0.127871
2023/07/04 07:01:00.306, True, 0.995, 0.128176
2023/07/04 07:01:00.802, True, 1.011, 0.129778
2023/07/04 07:01:01.305, True, 0.663, 0.129091
2023/07/04 07:01:01.810, True, 0.995, 0.126116
2023/07/04 07:01:02.313, True, 0.995, 0.127260
2023/07/04 07:01:02.810, True, 1.011, 0.128710
2023/07/04 07:01:03.314, True, 0.995, 0.128328
2023/07/04 07:01:03.818, True, 0.663, 0.128405
2023/07/04 07:01:04.314, True, 1.011, 0.125963
2023/07/04 07:01:04.818, True, 0.995, 0.129244
2023/07/04 07:01:05.322, True, 0.995, 0.126497
2023/07/04 07:01:05.818, True, 0.674, 0.130388
2023/07/04 07:01:06.322, True, 0.995, 0.124437
2023/07/04 07:01:06.826, True, 0.995, 0.128481
2023/07/04 07:01:07.322, True, 1.011, 0.128099
2023/07/04 07:01:07.826, True, 0.995, 0.128023
2023/07/04 07:01:08.330, True, 0.995, 0.128099
2023/07/04 07:01:08.825, True, 1.011, 0.128328
2023/07/04 07:01:09.330, True, 0.995, 0.131075
2023/07/04 07:01:09.834, True, 0.995, 0.129625
2023/07/04 07:01:10.330, True, 1.011, 0.130465
2023/07/04 07:01:10.834, True, 0.664, 0.126421
2023/07/04 07:01:11.338, True, 0.994, 0.130007
2023/07/04 07:01:11.834, True, 1.011, 0.129244
2023/07/04 07:01:12.338, True, 0.664, 0.129549
2023/07/04 07:01:12.842, True, 0.994, 0.129931
2023/07/04 07:01:13.338, True, 1.011, 0.129625
2023/07/04 07:01:13.842, True, 0.995, 0.128634
2023/07/04 07:01:14.338, True, 1.012, 0.130999
2023/07/04 07:01:14.842, True, 0.994, 0.130312
2023/07/04 07:01:15.346, True, 0.996, 0.129168
2023/07/04 07:01:15.842, True, 1.010, 0.131991
2023/07/04 07:01:16.346, True, 0.664, 0.129625
2023/07/04 07:01:16.850, True, 0.994, 0.128862
2023/07/04 07:01:17.346, True, 1.011, 0.128939
2023/07/04 07:01:17.850, True, 0.995, 0.131838
2023/07/04 07:01:18.354, True, 0.995, 0.130617
2023/07/04 07:01:18.850, True, 1.011, 0.129473
2023/07/04 07:01:19.354, True, 0.663, 0.129320
2023/07/04 07:01:19.858, True, 0.995, 0.130846
2023/07/04 07:01:20.354, True, 1.011, 0.132906
2023/07/04 07:01:20.857, True, 0.994, 0.130541
2023/07/04 07:01:21.362, True, 0.995, 0.131075
2023/07/04 07:01:21.858, True, 1.011, 0.131304
2023/07/04 07:01:22.361, True, 0.995, 0.131380
2023/07/04 07:01:22.866, True, 0.663, 0.132906
2023/07/04 07:01:23.362, True, 1.011, 0.130770
2023/07/04 07:01:23.866, True, 0.997, 0.130922
2023/07/04 07:01:24.370, True, 0.993, 0.130007
2023/07/04 07:01:24.866, True, 1.011, 0.130617
2023/07/04 07:01:25.370, True, 0.995, 0.130999
2023/07/04 07:01:25.874, True, 0.994, 0.132677
2023/07/04 07:01:26.378, True, 0.995, 0.131151
2023/07/04 07:01:26.874, True, 1.011, 0.131228
2023/07/04 07:01:27.378, True, 0.663, 0.135119
2023/07/04 07:01:27.882, True, 0.995, 0.131914
2023/07/04 07:01:28.378, True, 1.011, 0.131151
2023/07/04 07:01:28.882, True, 0.995, 0.132067
2023/07/04 07:01:29.386, True, 0.996, 0.131991
2023/07/04 07:01:29.882, True, 1.011, 0.131609
2023/07/04 07:01:30.386, True, 0.994, 0.131838
2023/07/04 07:01:30.890, True, 0.995, 0.130617
2023/07/04 07:01:31.386, True, 1.011, 0.131228
2023/07/04 07:01:31.890, True, 0.995, 0.131914
2023/07/04 07:01:32.394, True, 0.663, 0.133516
2023/07/04 07:01:32.890, True, 1.012, 0.129549
2023/07/04 07:01:33.394, True, 0.993, 0.132906
2023/07/04 07:01:33.898, True, 0.995, 0.130388
2023/07/04 07:01:34.394, True, 1.012, 0.131914
2023/07/04 07:01:34.898, True, 0.993, 0.132677
2023/07/04 07:01:35.402, True, 0.995, 0.130312
2023/07/04 07:01:35.897, True, 0.674, 0.133516
2023/07/04 07:01:36.402, True, 0.995, 0.130846
2023/07/04 07:01:36.905, True, 0.995, 0.130770
2023/07/04 07:01:37.402, True, 0.674, 0.133516
2023/07/04 07:01:37.906, True, 0.995, 0.132296
2023/07/04 07:01:38.402, True, 1.011, 0.130922
2023/07/04 07:01:38.905, True, 0.997, 0.130236
2023/07/04 07:01:39.410, True, 0.993, 0.132296
2023/07/04 07:01:39.905, True, 1.013, 0.134661
2023/07/04 07:01:40.409, True, 0.993, 0.131533
2023/07/04 07:01:40.914, True, 0.995, 0.131380
2023/07/04 07:01:41.410, True, 1.011, 0.132143
2023/07/04 07:01:41.914, True, 0.663, 0.132219
2023/07/04 07:01:42.418, True, 0.995, 0.134966
2023/07/04 07:01:42.914, True, 1.011, 0.131762
2023/07/04 07:01:43.418, True, 0.995, 0.132601
2023/07/04 07:01:43.914, True, 1.011, 0.133288
2023/07/04 07:01:44.417, True, 0.995, 0.131609
2023/07/04 07:01:44.922, True, 0.663, 0.131914
2023/07/04 07:01:45.417, True, 1.011, 0.133135
2023/07/04 07:01:45.922, True, 0.995, 0.133364
2023/07/04 07:01:46.426, True, 0.995, 0.133211
2023/07/04 07:01:46.922, True, 1.012, 0.133440
2023/07/04 07:01:47.425, True, 0.995, 0.130846
2023/07/04 07:01:47.930, True, 0.994, 0.133059
2023/07/04 07:01:48.426, True, 0.674, 0.131609
2023/07/04 07:01:48.930, True, 0.996, 0.133211
2023/07/04 07:01:49.434, True, 0.994, 0.134661
2023/07/04 07:01:49.929, True, 1.011, 0.135042
2023/07/04 07:01:50.434, True, 0.996, 0.131533
2023/07/04 07:01:50.938, True, 0.994, 0.132830
2023/07/04 07:01:51.433, True, 1.011, 0.132448
2023/07/04 07:01:51.938, True, 0.995, 0.134356
2023/07/04 07:01:52.441, True, 0.664, 0.132448
2023/07/04 07:01:52.938, True, 1.011, 0.133440
2023/07/04 07:01:53.442, True, 0.993, 0.132677
2023/07/04 07:01:53.946, True, 0.995, 0.132525
2023/07/04 07:01:54.442, True, 1.011, 0.133135
2023/07/04 07:01:54.946, True, 0.995, 0.132219
2023/07/04 07:01:55.450, True, 0.995, 0.131685
2023/07/04 07:01:55.954, True, 0.995, 0.132601
2023/07/04 07:01:56.450, True, 1.010, 0.131228
2023/07/04 07:01:56.954, True, 0.664, 0.133135
2023/07/04 07:01:57.458, True, 0.995, 0.134127
2023/07/04 07:01:57.954, True, 1.010, 0.133822
2023/07/04 07:01:58.458, True, 0.994, 0.132067
2023/07/04 07:01:58.962, True, 0.995, 0.134966
2023/07/04 07:01:59.458, True, 0.674, 0.133211
2023/07/04 07:01:59.962, True, 0.994, 0.132067
2023/07/04 07:02:00.458, True, 1.012, 0.132219
2023/07/04 07:02:00.962, True, 0.995, 0.133974
2023/07/04 07:02:01.466, True, 0.993, 0.131533
2023/07/04 07:02:01.970, True, 0.995, 0.132906
2023/07/04 07:02:02.466, True, 1.012, 0.132906
2023/07/04 07:02:02.970, True, 0.663, 0.133288
2023/07/04 07:02:03.474, True, 0.995, 0.131914
2023/07/04 07:02:03.970, True, 1.011, 0.132601
2023/07/04 07:02:04.474, True, 0.995, 0.133364
2023/07/04 07:02:04.978, True, 0.995, 0.134966
2023/07/04 07:02:05.481, True, 0.995, 0.133288
2023/07/04 07:02:05.978, True, 1.012, 0.132601
2023/07/04 07:02:06.482, True, 0.994, 0.132830
2023/07/04 07:02:06.986, True, 0.995, 0.134508
2023/07/04 07:02:07.482, True, 0.674, 0.132906
2023/07/04 07:02:07.986, True, 0.995, 0.133822
2023/07/04 07:02:08.482, True, 1.011, 0.133898
2023/07/04 07:02:08.986, True, 0.995, 0.131456
2023/07/04 07:02:09.490, True, 0.996, 0.132372
2023/07/04 07:02:09.994, True, 0.994, 0.134813
2023/07/04 07:02:10.490, True, 1.012, 0.133516
2023/07/04 07:02:10.994, True, 0.662, 0.134203
2023/07/04 07:02:11.498, True, 0.995, 0.133516
2023/07/04 07:02:11.994, True, 1.011, 0.133822
2023/07/04 07:02:12.498, True, 0.995, 0.132296
2023/07/04 07:02:13.002, True, 0.995, 0.134127
2023/07/04 07:02:13.498, True, 1.011, 0.133135
2023/07/04 07:02:14.002, True, 0.995, 0.133822
2023/07/04 07:02:14.506, True, 0.996, 0.131991
2023/07/04 07:02:15.001, True, 1.011, 0.133593
2023/07/04 07:02:15.506, True, 0.993, 0.133974
2023/07/04 07:02:16.010, True, 0.995, 0.130846
2023/07/04 07:02:16.506, True, 1.011, 0.132830
2023/07/04 07:02:17.010, True, 0.995, 0.134356
2023/07/04 07:02:17.514, True, 0.995, 0.131838
2023/07/04 07:02:18.010, True, 1.010, 0.133364
2023/07/04 07:02:18.514, True, 0.995, 0.133516
2023/07/04 07:02:19.018, True, 0.664, 0.134432
2023/07/04 07:02:19.514, True, 1.010, 0.130922
2023/07/04 07:02:20.018, True, 0.995, 0.134356
2023/07/04 07:02:20.522, True, 0.994, 0.133516
2023/07/04 07:02:21.018, True, 1.011, 0.133211
2023/07/04 07:02:21.522, True, 0.996, 0.132677
2023/07/04 07:02:22.026, True, 0.994, 0.133669
2023/07/04 07:02:22.522, True, 1.011, 0.132525
2023/07/04 07:02:23.026, True, 0.663, 0.132982
2023/07/04 07:02:23.530, True, 0.995, 0.132677
2023/07/04 07:02:24.026, True, 1.012, 0.132753
2023/07/04 07:02:24.530, True, 0.994, 0.133898
2023/07/04 07:02:25.034, True, 0.995, 0.132753
2023/07/04 07:02:25.538, True, 0.663, 0.133898
2023/07/04 07:02:26.034, True, 1.011, 0.133898
2023/07/04 07:02:26.538, True, 0.996, 0.133211
2023/07/04 07:02:27.042, True, 0.993, 0.133516
2023/07/04 07:02:27.538, True, 1.011, 0.132067
2023/07/04 07:02:28.042, True, 0.994, 0.131533
2023/07/04 07:02:28.546, True, 0.995, 0.131533
2023/07/04 07:02:29.042, True, 1.010, 0.132906
2023/07/04 07:02:29.546, True, 0.995, 0.134661
2023/07/04 07:02:30.042, True, 1.011, 0.134279
2023/07/04 07:02:30.546, True, 0.663, 0.134203
2023/07/04 07:02:31.050, True, 0.995, 0.131456
2023/07/04 07:02:31.546, True, 1.011, 0.132296
2023/07/04 07:02:32.050, True, 0.995, 0.133440
2023/07/04 07:02:32.554, True, 0.995, 0.132982
2023/07/04 07:02:33.050, True, 1.011, 0.130999
2023/07/04 07:02:33.554, True, 0.996, 0.133364
2023/07/04 07:02:34.050, True, 1.010, 0.133669
2023/07/04 07:02:34.554, True, 0.995, 0.131228
2023/07/04 07:02:35.058, True, 0.995, 0.133669
2023/07/04 07:02:35.561, True, 0.664, 0.133745
2023/07/04 07:02:36.057, True, 1.009, 0.132677
2023/07/04 07:02:36.562, True, 0.995, 0.133211
2023/07/04 07:02:37.066, True, 0.994, 0.131762
2023/07/04 07:02:37.561, True, 0.674, 0.131838
2023/07/04 07:02:38.066, True, 0.995, 0.134661
2023/07/04 07:02:38.570, True, 0.995, 0.134966
2023/07/04 07:02:39.066, True, 1.011, 0.133974
2023/07/04 07:02:39.570, True, 0.995, 0.133059
2023/07/04 07:02:40.073, True, 0.994, 0.133974
2023/07/04 07:02:40.570, True, 1.011, 0.133059
2023/07/04 07:02:41.073, True, 0.995, 0.132601
2023/07/04 07:02:41.578, True, 0.995, 0.134356
2023/07/04 07:02:42.074, True, 1.011, 0.131838
2023/07/04 07:02:42.578, True, 0.663, 0.133745
2023/07/04 07:02:43.082, True, 0.995, 0.131456
2023/07/04 07:02:43.578, True, 1.011, 0.133745
2023/07/04 07:02:44.082, True, 0.995, 0.132143
2023/07/04 07:02:44.586, True, 0.995, 0.131991
2023/07/04 07:02:45.082, True, 1.012, 0.133898
2023/07/04 07:02:45.586, True, 0.994, 0.132906
2023/07/04 07:02:46.090, True, 0.997, 0.134661
2023/07/04 07:02:46.586, True, 1.009, 0.132525
2023/07/04 07:02:47.090, True, 0.995, 0.134203
2023/07/04 07:02:47.594, True, 0.995, 0.133135
2023/07/04 07:02:48.098, True, 0.996, 0.132830
2023/07/04 07:02:48.594, True, 0.673, 0.132219
2023/07/04 07:02:49.098, True, 0.995, 0.131838
2023/07/04 07:02:49.594, True, 1.010, 0.133745
2023/07/04 07:02:50.098, True, 0.996, 0.132753
2023/07/04 07:02:50.602, True, 0.993, 0.131914
2023/07/04 07:02:51.106, True, 0.997, 0.134279
2023/07/04 07:02:51.602, True, 1.009, 0.134203
2023/07/04 07:02:52.106, True, 0.663, 0.135958
2023/07/04 07:02:52.610, True, 0.995, 0.132601
2023/07/04 07:02:53.106, True, 1.011, 0.130922
2023/07/04 07:02:53.610, True, 0.995, 0.132525
2023/07/04 07:02:54.113, True, 0.995, 0.131228
2023/07/04 07:02:54.610, True, 1.011, 0.133135
2023/07/04 07:02:55.114, True, 0.663, 0.133440
2023/07/04 07:02:55.618, True, 0.995, 0.134661
2023/07/04 07:02:56.122, True, 0.994, 0.129854
2023/07/04 07:02:56.618, True, 1.011, 0.134356
2023/07/04 07:02:57.122, True, 0.995, 0.131380
2023/07/04 07:02:57.618, True, 1.011, 0.136950
2023/07/04 07:02:58.122, True, 0.995, 0.133288
2023/07/04 07:02:58.626, True, 0.663, 0.133059
2023/07/04 07:02:59.122, True, 1.011, 0.130922
2023/07/04 07:02:59.626, True, 0.995, 0.132525
2023/07/04 07:03:00.121, True, 1.011, 0.132906
2023/07/04 07:03:00.626, True, 0.995, 0.133059
2023/07/04 07:03:01.130, True, 0.995, 0.132677
2023/07/04 07:03:01.626, True, 0.674, 0.132830
2023/07/04 07:03:02.130, True, 0.995, 0.132067
2023/07/04 07:03:02.634, True, 0.995, 0.130388
2023/07/04 07:03:03.130, True, 1.011, 0.132067
2023/07/04 07:03:03.634, True, 0.995, 0.133974
2023/07/04 07:03:04.138, True, 0.994, 0.132601
2023/07/04 07:03:04.642, True, 0.995, 0.130388
2023/07/04 07:03:05.138, True, 1.010, 0.131533
2023/07/04 07:03:05.642, True, 0.663, 0.131991
2023/07/04 07:03:06.146, True, 0.994, 0.130465
2023/07/04 07:03:06.642, True, 1.011, 0.131380
2023/07/04 07:03:07.146, True, 0.996, 0.131838
2023/07/04 07:03:07.650, True, 0.994, 0.131991
2023/07/04 07:03:08.154, True, 0.664, 0.132525
2023/07/04 07:03:08.649, True, 1.011, 0.133364
2023/07/04 07:03:09.154, True, 0.996, 0.133669
2023/07/04 07:03:09.658, True, 0.994, 0.130846
2023/07/04 07:03:10.154, True, 1.011, 0.133898
2023/07/04 07:03:10.658, True, 0.663, 0.132677
2023/07/04 07:03:11.162, True, 0.996, 0.131991
2023/07/04 07:03:11.658, True, 1.011, 0.130159
2023/07/04 07:03:12.162, True, 0.994, 0.130159
2023/07/04 07:03:12.665, True, 0.663, 0.130083
2023/07/04 07:03:13.161, True, 1.011, 0.132677
2023/07/04 07:03:13.666, True, 0.996, 0.131838
2023/07/04 07:03:14.170, True, 0.994, 0.134356
2023/07/04 07:03:14.665, True, 1.011, 0.131685
2023/07/04 07:03:15.169, True, 0.663, 0.131685
2023/07/04 07:03:15.673, True, 0.996, 0.131456
2023/07/04 07:03:16.170, True, 1.009, 0.129625
2023/07/04 07:03:16.673, True, 0.995, 0.130388
2023/07/04 07:03:17.177, True, 0.997, 0.133059
2023/07/04 07:03:17.674, True, 1.011, 0.131838
2023/07/04 07:03:18.178, True, 0.993, 0.133669
2023/07/04 07:03:18.682, True, 0.664, 0.130770
2023/07/04 07:03:19.178, True, 1.009, 0.130312
2023/07/04 07:03:19.682, True, 0.996, 0.134203
2023/07/04 07:03:20.186, True, 0.993, 0.131304
2023/07/04 07:03:20.682, True, 1.011, 0.132067
2023/07/04 07:03:21.185, True, 0.996, 0.131456
2023/07/04 07:03:21.690, True, 0.995, 0.132448
2023/07/04 07:03:22.186, True, 1.011, 0.133059
2023/07/04 07:03:22.690, True, 0.995, 0.132982
2023/07/04 07:03:23.193, True, 0.995, 0.133822
2023/07/04 07:03:23.698, True, 0.995, 0.131914
2023/07/04 07:03:24.194, True, 1.010, 0.131838
2023/07/04 07:03:24.698, True, 0.663, 0.131456
2023/07/04 07:03:25.202, True, 0.997, 0.134966
2023/07/04 07:03:25.698, True, 1.009, 0.133059
2023/07/04 07:03:26.202, True, 0.995, 0.133440
2023/07/04 07:03:26.706, True, 0.994, 0.132143
2023/07/04 07:03:27.210, True, 0.663, 0.132830
2023/07/04 07:03:27.706, True, 1.011, 0.132906
2023/07/04 07:03:28.210, True, 0.996, 0.132448
2023/07/04 07:03:28.714, True, 0.994, 0.132372
2023/07/04 07:03:29.210, True, 1.011, 0.134127
2023/07/04 07:03:29.714, True, 0.996, 0.131838
2023/07/04 07:03:30.218, True, 0.994, 0.131838
2023/07/04 07:03:30.714, True, 1.011, 0.131075
2023/07/04 07:03:31.218, True, 0.994, 0.131228
2023/07/04 07:03:31.722, True, 0.664, 0.132448
2023/07/04 07:03:32.218, True, 1.011, 0.131456
2023/07/04 07:03:32.722, True, 0.993, 0.131228
2023/07/04 07:03:33.226, True, 0.995, 0.131914
2023/07/04 07:03:33.722, True, 1.011, 0.131456
2023/07/04 07:03:34.226, True, 0.996, 0.131456
2023/07/04 07:03:34.730, True, 0.995, 0.135576
2023/07/04 07:03:35.226, True, 1.011, 0.131304
2023/07/04 07:03:35.730, True, 0.662, 0.130541
2023/07/04 07:03:36.234, True, 0.995, 0.129778
2023/07/04 07:03:36.730, True, 1.013, 0.132219
2023/07/04 07:03:37.234, True, 0.994, 0.130236
2023/07/04 07:03:37.738, True, 0.994, 0.131075
2023/07/04 07:03:38.242, True, 0.663, 0.130846
2023/07/04 07:03:38.738, True, 1.012, 0.130083
2023/07/04 07:03:39.242, True, 0.995, 0.130999
2023/07/04 07:03:39.738, True, 1.010, 0.132753
2023/07/04 07:03:40.242, True, 0.995, 0.130388
2023/07/04 07:03:40.746, True, 0.995, 0.130999
2023/07/04 07:03:41.242, True, 1.013, 0.131838
2023/07/04 07:03:41.745, True, 0.993, 0.132219
2023/07/04 07:03:42.250, True, 0.995, 0.130159
2023/07/04 07:03:42.746, True, 1.011, 0.130999
2023/07/04 07:03:43.250, True, 0.995, 0.130694
2023/07/04 07:03:43.754, True, 0.995, 0.130922
2023/07/04 07:03:44.258, True, 0.995, 0.131456
2023/07/04 07:03:44.754, True, 1.013, 0.131914
2023/07/04 07:03:45.258, True, 0.993, 0.131762
2023/07/04 07:03:45.762, True, 0.995, 0.129244
2023/07/04 07:03:46.258, True, 1.011, 0.131304
2023/07/04 07:03:46.762, True, 0.663, 0.130922
2023/07/04 07:03:47.266, True, 0.995, 0.132601
2023/07/04 07:03:47.762, True, 1.011, 0.128786
2023/07/04 07:03:48.266, True, 0.995, 0.131456
2023/07/04 07:03:48.770, True, 0.995, 0.128634
2023/07/04 07:03:49.266, True, 1.012, 0.131533
2023/07/04 07:03:49.770, True, 0.994, 0.132601
2023/07/04 07:03:50.274, True, 0.995, 0.132448
2023/07/04 07:03:50.770, True, 1.011, 0.131075
2023/07/04 07:03:51.274, True, 0.995, 0.130770
2023/07/04 07:03:51.778, True, 0.995, 0.128786
2023/07/04 07:03:52.274, True, 1.011, 0.131533
2023/07/04 07:03:52.778, True, 0.995, 0.132753
2023/07/04 07:03:53.282, True, 0.995, 0.131838
2023/07/04 07:03:53.778, True, 0.674, 0.131304
2023/07/04 07:03:54.282, True, 0.995, 0.131456
2023/07/04 07:03:54.786, True, 0.995, 0.130312
2023/07/04 07:03:55.282, True, 1.011, 0.133211
2023/07/04 07:03:55.786, True, 0.995, 0.131838
2023/07/04 07:03:56.290, True, 0.995, 0.133440
2023/07/04 07:03:56.786, True, 1.011, 0.130083
2023/07/04 07:03:57.290, True, 0.995, 0.133211
2023/07/04 07:03:57.794, True, 0.663, 0.131991
2023/07/04 07:03:58.290, True, 1.011, 0.130922
2023/07/04 07:03:58.794, True, 0.995, 0.131533
2023/07/04 07:03:59.298, True, 0.995, 0.132296
2023/07/04 07:03:59.794, True, 1.011, 0.133211
2023/07/04 07:04:00.298, True, 0.995, 0.131456
2023/07/04 07:04:00.794, True, 1.011, 0.132372
2023/07/04 07:04:01.298, True, 0.995, 0.132906
2023/07/04 07:04:01.802, True, 0.995, 0.130846
2023/07/04 07:04:02.298, True, 1.010, 0.131685
2023/07/04 07:04:02.802, True, 0.995, 0.133440
2023/07/04 07:04:03.306, True, 0.665, 0.130465
2023/07/04 07:04:03.802, True, 1.009, 0.130922
2023/07/04 07:04:04.306, True, 0.995, 0.130236
2023/07/04 07:04:04.810, True, 0.995, 0.132601
2023/07/04 07:04:05.306, True, 0.674, 0.132143
2023/07/04 07:04:05.810, True, 0.995, 0.132753
2023/07/04 07:04:06.314, True, 0.995, 0.130922
2023/07/04 07:04:06.810, True, 1.011, 0.130007
2023/07/04 07:04:07.314, True, 0.995, 0.131456
2023/07/04 07:04:07.818, True, 0.996, 0.130999
2023/07/04 07:04:08.314, True, 1.009, 0.130617
2023/07/04 07:04:08.817, True, 0.996, 0.130388
2023/07/04 07:04:09.322, True, 0.994, 0.129549
2023/07/04 07:04:09.818, True, 0.674, 0.130388
2023/07/04 07:04:10.322, True, 0.995, 0.131609
2023/07/04 07:04:10.826, True, 0.995, 0.130007
2023/07/04 07:04:11.322, True, 1.011, 0.130999